TimeCST,TemperatureF,Dew PointF,Humidity,Sea Level PressureIn,VisibilityMPH,Wind Direction,Wind SpeedMPH,Gust SpeedMPH,PrecipitationIn,Events,Conditions,WindDirDegrees,DateUTC
12:15 AM,-11.2,-14.8,84,30.24,10.0,South,4.6,-,N/A,,Clear,170,2013-01-01 06:15:00
12:35 AM,-9.4,-11.2,92,30.24,10.0,SSE,3.5,-,N/A,,Clear,160,2013-01-01 06:35:00
12:55 AM,-9.4,-11.2,92,30.25,10.0,Calm,Calm,-,N/A,,Clear,0,2013-01-01 06:55:00
1:15 AM,-11.2,-14.8,84,30.23,10.0,SSE,4.6,-,N/A,,Clear,150,2013-01-01 07:15:00
1:35 AM,-11.2,-16.6,77,30.23,10.0,SSE,3.5,-,N/A,,Clear,160,2013-01-01 07:35:00
1:55 AM,-11.2,-14.8,84,30.22,10.0,SSE,5.8,-,N/A,,Clear,160,2013-01-01 07:55:00
2:14 AM,-9.4,-11.2,92,30.22,10.0,South,4.6,-,N/A,,Clear,170,2013-01-01 08:14:00
2:35 AM,-9.4,-11.2,92,30.22,10.0,South,5.8,-,N/A,,Clear,170,2013-01-01 08:35:00
2:55 AM,-9.4,-11.2,92,30.21,10.0,SSE,4.6,-,N/A,,Clear,160,2013-01-01 08:55:00
3:14 AM,-9.4,-13.0,84,30.22,10.0,SSE,4.6,-,N/A,,Clear,150,2013-01-01 09:14:00
3:35 AM,-9.4,-13.0,84,30.21,10.0,SSE,5.8,-,N/A,,Clear,150,2013-01-01 09:35:00
3:55 AM,-7.6,-11.2,84,30.21,10.0,SSE,4.6,-,N/A,,Mostly Cloudy,150,2013-01-01 09:55:00
4:14 AM,-7.6,-9.4,92,30.22,10.0,SSE,4.6,-,N/A,,Overcast,150,2013-01-01 10:14:00
4:35 AM,-5.8,-7.6,92,30.21,10.0,SSE,4.6,-,N/A,Snow,Light Snow,160,2013-01-01 10:35:00
4:55 AM,-4.0,-7.6,85,30.21,7.0,South,4.6,-,N/A,Snow,Light Snow,170,2013-01-01 10:55:00
5:15 AM,-2.2,-5.8,85,30.20,10.0,South,5.8,-,N/A,Snow,Light Snow,170,2013-01-01 11:15:00
5:35 AM,-2.2,-4.0,92,30.20,10.0,South,4.6,-,N/A,Snow,Light Snow,170,2013-01-01 11:35:00
6:15 AM,-0.4,-2.2,92,30.18,10.0,South,4.6,-,N/A,,Overcast,170,2013-01-01 12:15:00
6:35 AM,1.4,-0.4,92,30.18,10.0,South,5.8,-,N/A,,Overcast,180,2013-01-01 12:35:00
6:54 AM,1.4,-0.4,92,30.17,10.0,South,6.9,-,N/A,,Overcast,180,2013-01-01 12:54:00
7:15 AM,1.4,1.4,100,30.16,10.0,South,5.8,-,N/A,,Overcast,180,2013-01-01 13:15:00
7:35 AM,3.2,1.4,92,30.15,10.0,South,4.6,-,N/A,,Overcast,190,2013-01-01 13:35:00
7:54 AM,3.2,1.4,92,30.15,10.0,SSW,6.9,-,N/A,,Overcast,200,2013-01-01 13:54:00
8:15 AM,3.2,3.2,100,30.16,10.0,SSW,8.1,-,N/A,,Overcast,200,2013-01-01 14:15:00
8:34 AM,5.0,3.2,92,30.15,10.0,SSW,8.1,-,N/A,,Overcast,200,2013-01-01 14:34:00
8:55 AM,5.0,3.2,92,30.15,10.0,SSW,8.1,-,N/A,,Overcast,200,2013-01-01 14:55:00
9:15 AM,5.0,3.2,92,30.14,10.0,SSW,6.9,-,N/A,,Overcast,200,2013-01-01 15:15:00
9:35 AM,6.8,5.0,92,30.13,10.0,SSW,9.2,-,N/A,,Overcast,200,2013-01-01 15:35:00
9:55 AM,6.8,5.0,92,30.13,10.0,SSW,6.9,-,N/A,,Overcast,200,2013-01-01 15:55:00
10:15 AM,6.8,6.8,100,30.13,5.0,South,9.2,-,N/A,,Overcast,180,2013-01-01 16:15:00
10:35 AM,8.6,6.8,92,30.12,4.0,South,8.1,-,N/A,Snow,Light Snow,180,2013-01-01 16:35:00
10:55 AM,8.6,8.6,100,30.12,2.5,South,5.8,-,N/A,Snow,Light Snow,180,2013-01-01 16:55:00
11:14 AM,8.6,8.6,100,30.12,2.0,South,6.9,-,N/A,Snow,Light Snow,190,2013-01-01 17:14:00
11:35 AM,10.4,10.4,100,30.11,4.0,South,4.6,-,N/A,Snow,Light Snow,180,2013-01-01 17:35:00
11:55 AM,10.4,10.4,100,30.10,7.0,South,6.9,-,N/A,,Overcast,190,2013-01-01 17:55:00
12:14 PM,12.2,10.4,92,30.09,10.0,South,6.9,-,N/A,,Overcast,180,2013-01-01 18:14:00
12:35 PM,12.2,12.2,100,30.08,10.0,South,6.9,-,N/A,,Overcast,180,2013-01-01 18:35:00
1:14 PM,12.2,12.2,100,30.05,10.0,South,6.9,-,N/A,,Overcast,180,2013-01-01 19:14:00
1:35 PM,14.0,12.2,93,30.05,10.0,South,5.8,-,N/A,,Overcast,190,2013-01-01 19:35:00
2:15 PM,15.8,14.0,93,30.03,10.0,South,10.4,-,N/A,,Overcast,170,2013-01-01 20:15:00
2:35 PM,15.8,15.8,100,30.03,10.0,South,9.2,-,N/A,,Overcast,180,2013-01-01 20:35:00
2:55 PM,15.8,15.8,100,30.02,10.0,South,8.1,-,N/A,,Overcast,180,2013-01-01 20:55:00
3:15 PM,17.6,15.8,93,30.02,10.0,South,8.1,-,N/A,,Overcast,180,2013-01-01 21:15:00
3:35 PM,17.6,15.8,93,30.02,10.0,South,6.9,-,N/A,,Overcast,180,2013-01-01 21:35:00
3:55 PM,17.6,17.6,100,30.00,10.0,South,8.1,-,N/A,,Overcast,180,2013-01-01 21:55:00
4:15 PM,17.6,17.6,100,30.00,10.0,South,8.1,-,N/A,,Overcast,180,2013-01-01 22:15:00
4:35 PM,19.4,17.6,93,30.00,10.0,South,9.2,-,N/A,,Overcast,170,2013-01-01 22:35:00
4:54 PM,19.4,17.6,93,29.99,10.0,South,8.1,-,N/A,,Overcast,180,2013-01-01 22:54:00
5:15 PM,19.4,19.4,100,29.99,10.0,South,9.2,-,N/A,,Overcast,190,2013-01-01 23:15:00
5:35 PM,19.4,19.4,100,29.99,10.0,SW,11.5,-,N/A,,Overcast,220,2013-01-01 23:35:00
5:54 PM,19.4,19.4,100,29.98,10.0,SW,12.7,-,N/A,,Overcast,220,2013-01-01 23:54:00
6:15 PM,19.4,19.4,100,29.98,10.0,SW,11.5,-,N/A,,Overcast,220,2013-01-02 00:15:00
6:35 PM,19.4,19.4,100,29.97,10.0,SSW,12.7,-,N/A,,Overcast,200,2013-01-02 00:35:00
6:54 PM,19.4,19.4,100,29.97,10.0,SSW,11.5,-,N/A,,Overcast,210,2013-01-02 00:54:00
7:15 PM,19.4,19.4,100,29.96,10.0,SSW,10.4,-,N/A,,Overcast,210,2013-01-02 01:15:00
7:35 PM,19.4,19.4,100,29.95,10.0,SSW,12.7,-,N/A,,Overcast,210,2013-01-02 01:35:00
7:54 PM,19.4,19.4,100,29.95,10.0,SW,15.0,-,N/A,,Overcast,220,2013-01-02 01:54:00
8:15 PM,19.4,19.4,100,29.95,10.0,SW,13.8,-,N/A,,Overcast,220,2013-01-02 02:15:00
8:34 PM,17.6,17.6,100,29.95,10.0,SW,12.7,-,N/A,,Overcast,220,2013-01-02 02:34:00
8:55 PM,17.6,17.6,100,29.94,10.0,SSW,11.5,-,N/A,,Overcast,210,2013-01-02 02:55:00
9:15 PM,17.6,17.6,100,29.93,10.0,SSW,9.2,-,N/A,,Overcast,200,2013-01-02 03:15:00
9:34 PM,17.6,15.8,93,29.93,10.0,SW,9.2,-,N/A,,Overcast,230,2013-01-02 03:34:00
9:55 PM,15.8,14.0,93,29.92,10.0,SSW,10.4,-,N/A,,Mostly Cloudy,200,2013-01-02 03:55:00
10:15 PM,14.0,14.0,100,29.92,10.0,South,9.2,-,N/A,,Clear,190,2013-01-02 04:15:00
10:34 PM,12.2,12.2,100,29.91,10.0,South,6.9,-,N/A,,Clear,180,2013-01-02 04:34:00
10:55 PM,12.2,12.2,100,29.91,10.0,South,6.9,-,N/A,,Clear,190,2013-01-02 04:55:00
11:15 PM,12.2,10.4,92,29.91,10.0,South,8.1,-,N/A,,Clear,190,2013-01-02 05:15:00
11:34 PM,10.4,10.4,100,29.91,10.0,South,6.9,-,N/A,,Clear,190,2013-01-02 05:34:00
11:55 PM,10.4,10.4,100,29.90,10.0,South,8.1,-,N/A,,Mostly Cloudy,190,2013-01-02 05:55:00